Back to Top

Language: 

My Weather Underground Personal Weather Station Historical Data with Graphs...

Delerius Weather Station Historical Data
Daily Summary for April 23, 2017 Units:  English    Metric   Both
« Previous Day
Next Day »
Daily Weekly Monthly Yearly Custom
  High: Low: Average:
Temperature: 60.4 °F 39.9 °F 49.9 °F
Dew Point: 42.2 °F 33.6 °F 37.4 °F
Humidity: 87 % 40 % 64 %
Wind Speed: 12.0 mph 0.0 mph 4.8 mph
Wind Gust: 21.0 mph - -
Wind:- - WNW
Pressure: 30.38 in 30.10 in -
Precipitation: 0.00 in    
Historical Graphs
 
 
Tabular Data for April 23, 2017
Time Temperature Dew Point Pressure Wind Wind Speed Wind Gust Humidity Rainfall Rate (Hourly) solar Conditions
00:01 43.3 °F 35.3 °F 30.38 in Calm   1.0 mph 73 % 0.00 in 0 W/m2
00:06 43.2 °F 35.1 °F 30.38 in Calm     73 % 0.00 in 0 W/m2
00:11 43.0 °F 35.3 °F 30.38 in Calm     74 % 0.00 in 0 W/m2
00:16 42.8 °F 35.1 °F 30.38 in Calm   2.0 mph 74 % 0.00 in 0 W/m2
00:21 42.6 °F 34.9 °F 30.38 in South 1.0 mph 2.0 mph 74 % 0.00 in 0 W/m2
00:26 42.4 °F 35.1 °F 30.38 in Calm   2.0 mph 75 % 0.00 in 0 W/m2
00:31 42.4 °F 35.1 °F 30.38 in Calm   3.0 mph 75 % 0.00 in 0 W/m2
00:36 42.4 °F 35.4 °F 30.38 in SW 1.0 mph 4.0 mph 76 % 0.00 in 0 W/m2
00:41 42.4 °F 35.1 °F 30.38 in WSW 1.0 mph 4.0 mph 75 % 0.00 in 0 W/m2
00:46 42.4 °F 35.4 °F 30.38 in Calm   3.0 mph 76 % 0.00 in 0 W/m2
00:51 42.4 °F 35.4 °F 30.38 in Calm   1.0 mph 76 % 0.00 in 0 W/m2
00:56 42.3 °F 35.9 °F 30.38 in Calm     78 % 0.00 in 0 W/m2
01:01 42.1 °F 35.7 °F 30.38 in Calm     78 % 0.00 in 0 W/m2
01:06 42.1 °F 36.0 °F 30.38 in Calm   2.0 mph 79 % 0.00 in 0 W/m2
01:11 41.9 °F 35.9 °F 30.37 in WSW 1.0 mph 2.0 mph 79 % 0.00 in 0 W/m2
01:17 41.9 °F 35.9 °F 30.37 in WSW 1.0 mph 2.0 mph 79 % 0.00 in 0 W/m2
01:22 41.7 °F 35.7 °F 30.37 in WSW 1.0 mph 4.0 mph 79 % 0.00 in 0 W/m2
01:27 41.7 °F 35.7 °F 30.37 in WSW 2.0 mph 5.0 mph 79 % 0.00 in 0 W/m2
01:32 41.7 °F 35.7 °F 30.37 in WSW 1.0 mph 5.0 mph 79 % 0.00 in 0 W/m2
01:37 41.5 °F 35.5 °F 30.37 in Calm   3.0 mph 79 % 0.00 in 0 W/m2
01:42 41.5 °F 35.8 °F 30.37 in Calm   1.0 mph 80 % 0.00 in 0 W/m2
01:47 41.5 °F 35.8 °F 30.36 in Calm   1.0 mph 80 % 0.00 in 0 W/m2
01:52 41.5 °F 36.1 °F 30.36 in Calm   1.0 mph 81 % 0.00 in 0 W/m2
01:57 41.5 °F 36.1 °F 30.36 in Calm   1.0 mph 81 % 0.00 in 0 W/m2
02:02 41.7 °F 36.3 °F 30.36 in Calm   2.0 mph 81 % 0.00 in 0 W/m2
02:07 41.9 °F 36.5 °F 30.36 in Calm   2.0 mph 81 % 0.00 in 0 W/m2
02:12 41.9 °F 36.5 °F 30.36 in WSW 1.0 mph 5.0 mph 81 % 0.00 in 0 W/m2
02:18 42.1 °F 36.7 °F 30.36 in WSW 3.0 mph 7.0 mph 81 % 0.00 in 0 W/m2
02:23 42.3 °F 36.5 °F 30.35 in WSW 3.0 mph 7.0 mph 80 % 0.00 in 0 W/m2
02:28 42.3 °F 36.2 °F 30.35 in WSW 3.0 mph 7.0 mph 79 % 0.00 in 0 W/m2
02:33 42.3 °F 36.2 °F 30.35 in WSW 2.0 mph 6.0 mph 79 % 0.00 in 0 W/m2
02:38 42.3 °F 35.9 °F 30.35 in WSW 1.0 mph 5.0 mph 78 % 0.00 in 0 W/m2
02:43 42.1 °F 35.7 °F 30.35 in Calm   4.0 mph 78 % 0.00 in 0 W/m2
02:48 41.7 °F 35.4 °F 30.35 in Calm   4.0 mph 78 % 0.00 in 0 W/m2
02:53 41.5 °F 35.2 °F 30.35 in WSW 1.0 mph 3.0 mph 78 % 0.00 in 0 W/m2
02:58 41.2 °F 34.8 °F 30.35 in Calm   4.0 mph 78 % 0.00 in 0 W/m2
03:03 41.0 °F 34.7 °F 30.35 in Calm   4.0 mph 78 % 0.00 in 0 W/m2
03:08 40.6 °F 34.3 °F 30.35 in Calm   2.0 mph 78 % 0.00 in 0 W/m2
03:13 40.5 °F 34.5 °F 30.35 in WSW 1.0 mph 4.0 mph 79 % 0.00 in 0 W/m2
03:18 40.3 °F 34.3 °F 30.34 in WSW 1.0 mph 4.0 mph 79 % 0.00 in 0 W/m2
03:23 40.3 °F 34.3 °F 30.34 in Calm   2.0 mph 79 % 0.00 in 0 W/m2
03:28 40.1 °F 34.1 °F 30.34 in Calm     79 % 0.00 in 0 W/m2
03:33 39.9 °F 33.9 °F 30.34 in Calm   2.0 mph 79 % 0.00 in 0 W/m2
03:38 39.9 °F 34.2 °F 30.34 in WSW 1.0 mph 5.0 mph 80 % 0.00 in 0 W/m2
03:43 39.9 °F 34.2 °F 30.34 in WSW 1.0 mph 5.0 mph 80 % 0.00 in 0 W/m2
03:48 39.9 °F 34.2 °F 30.34 in Calm   2.0 mph 80 % 0.00 in 0 W/m2
03:53 40.3 °F 34.6 °F 30.34 in Calm   2.0 mph 80 % 0.00 in 0 W/m2
03:58 40.3 °F 34.6 °F 30.34 in Calm   2.0 mph 80 % 0.00 in 0 W/m2
04:03 40.5 °F 34.8 °F 30.34 in Calm   2.0 mph 80 % 0.00 in 0 W/m2
04:08 40.6 °F 35.0 °F 30.34 in West 1.0 mph 5.0 mph 80 % 0.00 in 0 W/m2
04:13 40.8 °F 35.1 °F 30.33 in WNW 1.0 mph 5.0 mph 80 % 0.00 in 0 W/m2
04:18 41.0 °F 35.3 °F 30.33 in WNW 2.0 mph 6.0 mph 80 % 0.00 in 0 W/m2
04:23 41.0 °F 35.3 °F 30.33 in WNW 2.0 mph 7.0 mph 80 % 0.00 in 0 W/m2
04:28 41.2 °F 35.2 °F 30.33 in West 3.0 mph 8.0 mph 79 % 0.00 in 0 W/m2
04:33 41.2 °F 35.2 °F 30.33 in West 2.0 mph 8.0 mph 79 % 0.00 in 0 W/m2
04:39 41.4 °F 35.0 °F 30.33 in West 2.0 mph 6.0 mph 78 % 0.00 in 0 W/m2
04:44 41.4 °F 35.0 °F 30.33 in West 3.0 mph 9.0 mph 78 % 0.00 in 0 W/m2
04:49 41.4 °F 35.0 °F 30.33 in West 3.0 mph 9.0 mph 78 % 0.00 in 0 W/m2
04:54 41.5 °F 34.9 °F 30.33 in West 4.0 mph 8.0 mph 77 % 0.00 in 0 W/m2
04:59 41.5 °F 34.9 °F 30.33 in West 5.0 mph 9.0 mph 77 % 0.00 in 0 W/m2
05:04 41.7 °F 34.7 °F 30.33 in WSW 5.0 mph 11.0 mph 76 % 0.00 in 0 W/m2
05:09 42.1 °F 35.1 °F 30.33 in WSW 5.0 mph 11.0 mph 76 % 0.00 in 0 W/m2
05:14 42.3 °F 34.9 °F 30.33 in WSW 5.0 mph 9.0 mph 75 % 0.00 in 0 W/m2
05:19 42.1 °F 34.7 °F 30.33 in West 5.0 mph 9.0 mph 75 % 0.00 in 0 W/m2
05:24 42.1 °F 34.7 °F 30.32 in West 4.0 mph 9.0 mph 75 % 0.00 in 0 W/m2
05:29 41.7 °F 34.4 °F 30.32 in WNW 3.0 mph 6.0 mph 75 % 0.00 in 0 W/m2
05:34 41.5 °F 34.5 °F 30.32 in NW 3.0 mph 6.0 mph 76 % 0.00 in 0 W/m2
05:39 41.4 °F 34.7 °F 30.32 in NW 3.0 mph 6.0 mph 77 % 0.00 in 0 W/m2
05:44 41.2 °F 34.5 °F 30.32 in NW 3.0 mph 6.0 mph 77 % 0.00 in 5 W/m2
05:49 41.2 °F 34.8 °F 30.32 in WNW 3.0 mph 6.0 mph 78 % 0.00 in 5 W/m2
05:54 40.8 °F 34.8 °F 30.32 in WNW 2.0 mph 5.0 mph 79 % 0.00 in 7 W/m2
05:59 40.8 °F 34.8 °F 30.32 in WNW 2.0 mph 5.0 mph 79 % 0.00 in 11 W/m2
06:04 40.6 °F 35.3 °F 30.32 in WNW 2.0 mph 5.0 mph 81 % 0.00 in 14 W/m2
06:09 40.6 °F 35.3 °F 30.32 in WNW 3.0 mph 5.0 mph 81 % 0.00 in 16 W/m2
06:14 40.5 °F 35.4 °F 30.32 in WNW 2.0 mph 4.0 mph 82 % 0.00 in 19 W/m2
06:19 40.5 °F 35.7 °F 30.32 in WNW 1.0 mph 4.0 mph 83 % 0.00 in 21 W/m2
06:24 40.3 °F 35.5 °F 30.32 in WNW 1.0 mph 4.0 mph 83 % 0.00 in 25 W/m2
06:29 40.3 °F 35.8 °F 30.32 in WNW 1.0 mph 4.0 mph 84 % 0.00 in 26 W/m2
06:34 40.3 °F 35.8 °F 30.32 in WNW 1.0 mph 4.0 mph 84 % 0.00 in 37 W/m2
06:39 40.3 °F 35.8 °F 30.32 in WNW 1.0 mph 3.0 mph 84 % 0.00 in 32 W/m2
06:45 40.3 °F 36.1 °F 30.32 in Calm   2.0 mph 85 % 0.00 in 33 W/m2
06:50 40.3 °F 36.1 °F 30.32 in Calm   2.0 mph 85 % 0.00 in 35 W/m2
06:55 40.3 °F 36.4 °F 30.32 in Calm   4.0 mph 86 % 0.00 in 42 W/m2
07:00 40.5 °F 36.6 °F 30.32 in WNW 1.0 mph 4.0 mph 86 % 0.00 in 46 W/m2
07:05 40.6 °F 36.8 °F 30.32 in WNW 1.0 mph 4.0 mph 86 % 0.00 in 70 W/m2
07:10 41.2 °F 37.6 °F 30.32 in WNW 1.0 mph 4.0 mph 87 % 0.00 in 148 W/m2
07:15 41.7 °F 38.1 °F 30.32 in WNW 1.0 mph 4.0 mph 87 % 0.00 in 165 W/m2
07:20 42.4 °F 38.5 °F 30.32 in WNW 1.0 mph 5.0 mph 86 % 0.00 in 178 W/m2
07:25 43.3 °F 39.1 °F 30.32 in WNW 1.0 mph 5.0 mph 85 % 0.00 in 193 W/m2
07:30 44.4 °F 39.6 °F 30.32 in WNW 2.0 mph 8.0 mph 83 % 0.00 in 202 W/m2
07:35 45.3 °F 39.8 °F 30.32 in WNW 3.0 mph 8.0 mph 81 % 0.00 in 216 W/m2
07:40 46.0 °F 39.9 °F 30.32 in WNW 2.0 mph 6.0 mph 79 % 0.00 in 232 W/m2
07:45 46.8 °F 39.9 °F 30.32 in WNW 2.0 mph 6.0 mph 77 % 0.00 in 244 W/m2
07:50 47.1 °F 39.9 °F 30.32 in WNW 3.0 mph 8.0 mph 76 % 0.00 in 258 W/m2
07:55 47.5 °F 39.9 °F 30.32 in West 4.0 mph 9.0 mph 75 % 0.00 in 272 W/m2
08:00 48.0 °F 40.1 °F 30.32 in West 4.0 mph 9.0 mph 74 % 0.00 in 287 W/m2
08:05 48.4 °F 39.8 °F 30.32 in West 6.0 mph 11.0 mph 72 % 0.00 in 304 W/m2
08:10 48.6 °F 39.9 °F 30.32 in West 7.0 mph 11.0 mph 72 % 0.00 in 304 W/m2
08:15 48.7 °F 40.1 °F 30.32 in West 6.0 mph 13.0 mph 72 % 0.00 in 323 W/m2
08:20 48.9 °F 39.9 °F 30.32 in West 6.0 mph 13.0 mph 71 % 0.00 in 343 W/m2
08:25 49.3 °F 40.3 °F 30.32 in West 6.0 mph 11.0 mph 71 % 0.00 in 352 W/m2
08:30 49.6 °F 39.9 °F 30.32 in West 7.0 mph 11.0 mph 69 % 0.00 in 374 W/m2
08:35 49.8 °F 39.7 °F 30.32 in West 8.0 mph 13.0 mph 68 % 0.00 in 338 W/m2
08:40 50.2 °F 40.0 °F 30.32 in West 7.0 mph 13.0 mph 68 % 0.00 in 415 W/m2
08:45 50.5 °F 40.0 °F 30.32 in WNW 7.0 mph 11.0 mph 67 % 0.00 in 383 W/m2
08:46 50.5 °F 40.0 °F 30.31 in WNW 7.0 mph 11.0 mph 67 % 0.00 in 383 W/m2
08:50 50.9 °F 39.9 °F 30.31 in WNW 7.0 mph 11.0 mph 66 % 0.00 in 455 W/m2
08:56 51.3 °F 39.9 °F 30.31 in WNW 7.0 mph 11.0 mph 65 % 0.00 in 490 W/m2
09:01 51.8 °F 40.0 °F 30.31 in WNW 5.0 mph 9.0 mph 64 % 0.00 in 541 W/m2
09:06 52.3 °F 40.1 °F 30.31 in WNW 5.0 mph 12.0 mph 63 % 0.00 in 510 W/m2
09:11 52.5 °F 40.7 °F 30.31 in WNW 6.0 mph 12.0 mph 64 % 0.00 in 485 W/m2
09:16 52.9 °F 40.2 °F 30.31 in NW 7.0 mph 13.0 mph 62 % 0.00 in 381 W/m2
09:21 52.9 °F 39.8 °F 30.31 in NW 6.0 mph 13.0 mph 61 % 0.00 in 425 W/m2
09:26 53.1 °F 40.4 °F 30.31 in WNW 5.0 mph 10.0 mph 62 % 0.00 in 158 W/m2
09:31 53.1 °F 40.4 °F 30.31 in WNW 5.0 mph 10.0 mph 62 % 0.00 in 330 W/m2
09:36 52.9 °F 39.8 °F 30.31 in NW 5.0 mph 11.0 mph 61 % 0.00 in 158 W/m2
09:41 52.5 °F 39.9 °F 30.31 in NW 5.0 mph 11.0 mph 62 % 0.00 in 216 W/m2
09:46 52.7 °F 39.6 °F 30.31 in NW 5.0 mph 10.0 mph 61 % 0.00 in 603 W/m2
09:51 52.9 °F 38.9 °F 30.31 in WNW 6.0 mph 10.0 mph 59 % 0.00 in 554 W/m2
09:56 53.2 °F 39.7 °F 30.31 in WNW 6.0 mph 11.0 mph 60 % 0.00 in 671 W/m2
10:01 53.8 °F 39.8 °F 30.31 in WNW 6.0 mph 13.0 mph 59 % 0.00 in 679 W/m2
10:06 54.3 °F 40.3 °F 30.31 in NW 5.0 mph 13.0 mph 59 % 0.00 in 271 W/m2
10:11 54.7 °F 40.2 °F 30.31 in NW 4.0 mph 10.0 mph 58 % 0.00 in 761 W/m2
10:16 54.9 °F 39.5 °F 30.31 in NW 5.0 mph 10.0 mph 56 % 0.00 in 258 W/m2
10:21 54.9 °F 39.5 °F 30.31 in NNW 6.0 mph 10.0 mph 56 % 0.00 in 812 W/m2
10:26 54.3 °F 38.9 °F 30.31 in NW 6.0 mph 11.0 mph 56 % 0.00 in 163 W/m2
10:31 54.1 °F 38.3 °F 30.31 in NW 5.0 mph 11.0 mph 55 % 0.00 in 796 W/m2
10:36 54.3 °F 38.9 °F 30.31 in West 4.0 mph 9.0 mph 56 % 0.00 in 858 W/m2
10:41 55.0 °F 40.1 °F 30.30 in West 5.0 mph 10.0 mph 57 % 0.00 in 671 W/m2
10:46 55.8 °F 39.4 °F 30.30 in WNW 6.0 mph 10.0 mph 54 % 0.00 in 714 W/m2
10:51 55.6 °F 38.2 °F 30.30 in West 6.0 mph 10.0 mph 52 % 0.00 in 253 W/m2
10:56 55.6 °F 38.7 °F 30.30 in WNW 4.0 mph 9.0 mph 53 % 0.00 in 812 W/m2
11:01 55.9 °F 38.6 °F 30.30 in WNW 3.0 mph 8.0 mph 52 % 0.00 in 840 W/m2
11:06 56.5 °F 38.6 °F 30.30 in West 4.0 mph 9.0 mph 51 % 0.00 in 870 W/m2
11:12 57.0 °F 38.5 °F 30.29 in WNW 3.0 mph 9.0 mph 50 % 0.00 in 921 W/m2
11:17 57.0 °F 38.5 °F 30.29 in WNW 3.0 mph 12.0 mph 50 % 0.00 in 288 W/m2
11:22 56.8 °F 38.4 °F 30.29 in WNW 5.0 mph 15.0 mph 50 % 0.00 in 278 W/m2
11:27 56.5 °F 38.6 °F 30.29 in WNW 5.0 mph 15.0 mph 51 % 0.00 in 366 W/m2
11:32 56.5 °F 39.5 °F 30.29 in West 4.0 mph 11.0 mph 53 % 0.00 in 1007 W/m2
11:37 56.8 °F 38.9 °F 30.29 in West 6.0 mph 13.0 mph 51 % 0.00 in 399 W/m2
11:42 56.7 °F 38.2 °F 30.29 in WNW 7.0 mph 13.0 mph 50 % 0.00 in 290 W/m2
11:47 56.3 °F 38.4 °F 30.29 in WNW 7.0 mph 12.0 mph 51 % 0.00 in 362 W/m2
11:52 56.1 °F 38.7 °F 30.28 in West 6.0 mph 12.0 mph 52 % 0.00 in 415 W/m2
11:57 56.3 °F 39.4 °F 30.28 in West 5.0 mph 11.0 mph 53 % 0.00 in 796 W/m2
12:02 56.7 °F 38.7 °F 30.28 in WNW 5.0 mph 14.0 mph 51 % 0.00 in 842 W/m2
12:07 56.7 °F 38.7 °F 30.28 in West 7.0 mph 14.0 mph 51 % 0.00 in 292 W/m2
12:12 56.3 °F 37.9 °F 30.28 in West 7.0 mph 13.0 mph 50 % 0.00 in 846 W/m2
12:17 56.7 °F 38.7 °F 30.27 in West 6.0 mph 13.0 mph 51 % 0.00 in 860 W/m2
12:22 57.0 °F 39.1 °F 30.27 in West 5.0 mph 13.0 mph 51 % 0.00 in 842 W/m2
12:27 57.4 °F 39.4 °F 30.27 in West 5.0 mph 20.0 mph 51 % 0.00 in 902 W/m2
12:32 57.9 °F 38.9 °F 30.27 in West 7.0 mph 20.0 mph 49 % 0.00 in 826 W/m2
12:37 58.3 °F 39.2 °F 30.27 in WNW 7.0 mph 16.0 mph 49 % 0.00 in 868 W/m2
12:42 58.5 °F 38.8 °F 30.27 in West 6.0 mph 13.0 mph 48 % 0.00 in 854 W/m2
12:47 58.8 °F 38.6 °F 30.26 in WNW 7.0 mph 12.0 mph 47 % 0.00 in 867 W/m2
12:52 59.2 °F 38.4 °F 30.26 in West 6.0 mph 12.0 mph 46 % 0.00 in 886 W/m2
12:57 59.4 °F 39.1 °F 30.26 in West 6.0 mph 12.0 mph 47 % 0.00 in 888 W/m2
13:02 59.2 °F 37.8 °F 30.26 in West 7.0 mph 13.0 mph 45 % 0.00 in 151 W/m2
13:07 58.8 °F 37.5 °F 30.25 in West 8.0 mph 15.0 mph 45 % 0.00 in 891 W/m2
13:12 58.8 °F 38.1 °F 30.25 in West 7.0 mph 15.0 mph 46 % 0.00 in 900 W/m2
13:18 58.6 °F 39.0 °F 30.25 in WSW 7.0 mph 13.0 mph 48 % 0.00 in 926 W/m2
13:23 58.6 °F 39.5 °F 30.25 in West 7.0 mph 14.0 mph 49 % 0.00 in 188 W/m2
13:28 58.8 °F 38.6 °F 30.25 in WNW 7.0 mph 14.0 mph 47 % 0.00 in 216 W/m2
13:33 58.6 °F 37.9 °F 30.25 in West 8.0 mph 13.0 mph 46 % 0.00 in 874 W/m2
13:34 58.6 °F 37.9 °F 30.24 in West 8.0 mph 13.0 mph 46 % 0.00 in 874 W/m2
13:39 58.5 °F 38.3 °F 30.25 in West 7.0 mph 12.0 mph 47 % 0.00 in 264 W/m2
13:44 58.5 °F 38.8 °F 30.24 in West 6.0 mph 13.0 mph 48 % 0.00 in 937 W/m2
13:49 58.5 °F 38.3 °F 30.24 in West 6.0 mph 13.0 mph 47 % 0.00 in 216 W/m2
13:54 58.6 °F 39.5 °F 30.24 in WNW 7.0 mph 12.0 mph 49 % 0.00 in 849 W/m2
13:59 59.0 °F 39.3 °F 30.24 in WNW 8.0 mph 15.0 mph 48 % 0.00 in 865 W/m2
14:04 59.2 °F 38.9 °F 30.24 in WNW 8.0 mph 15.0 mph 47 % 0.00 in 824 W/m2
14:09 59.5 °F 39.3 °F 30.24 in WNW 7.0 mph 13.0 mph 47 % 0.00 in 833 W/m2
14:14 59.9 °F 40.1 °F 30.23 in WNW 7.0 mph 13.0 mph 48 % 0.00 in 853 W/m2
14:19 59.9 °F 39.1 °F 30.23 in WNW 9.0 mph 14.0 mph 46 % 0.00 in 216 W/m2
14:24 59.5 °F 38.7 °F 30.23 in WNW 8.0 mph 14.0 mph 46 % 0.00 in 844 W/m2
14:29 59.4 °F 39.1 °F 30.23 in West 8.0 mph 15.0 mph 47 % 0.00 in 244 W/m2
14:34 59.0 °F 39.3 °F 30.23 in WNW 8.0 mph 15.0 mph 48 % 0.00 in 207 W/m2
14:39 58.8 °F 38.6 °F 30.22 in WNW 6.0 mph 13.0 mph 47 % 0.00 in 225 W/m2
14:44 58.6 °F 38.5 °F 30.22 in WNW 6.0 mph 11.0 mph 47 % 0.00 in 265 W/m2
14:49 58.6 °F 39.0 °F 30.22 in WNW 7.0 mph 11.0 mph 48 % 0.00 in 838 W/m2
14:54 58.6 °F 39.0 °F 30.22 in WNW 6.0 mph 11.0 mph 48 % 0.00 in 844 W/m2
14:59 59.2 °F 39.5 °F 30.22 in West 7.0 mph 16.0 mph 48 % 0.00 in 772 W/m2
15:04 59.4 °F 39.1 °F 30.21 in West 9.0 mph 18.0 mph 47 % 0.00 in 207 W/m2
15:10 59.4 °F 39.7 °F 30.21 in West 8.0 mph 16.0 mph 48 % 0.00 in 809 W/m2
15:15 59.4 °F 39.1 °F 30.21 in West 9.0 mph 14.0 mph 47 % 0.00 in 807 W/m2
15:20 59.2 °F 39.5 °F 30.21 in West 9.0 mph 15.0 mph 48 % 0.00 in 134 W/m2
15:25 59.2 °F 39.5 °F 30.21 in West 9.0 mph 18.0 mph 48 % 0.00 in 729 W/m2
15:30 59.4 °F 39.1 °F 30.21 in West 8.0 mph 18.0 mph 47 % 0.00 in 687 W/m2
15:35 59.5 °F 39.3 °F 30.20 in West 9.0 mph 16.0 mph 47 % 0.00 in 684 W/m2
15:40 60.3 °F 40.5 °F 30.20 in WNW 8.0 mph 16.0 mph 48 % 0.00 in 642 W/m2
15:45 60.4 °F 39.0 °F 30.20 in WNW 9.0 mph 16.0 mph 45 % 0.00 in 654 W/m2
15:50 60.4 °F 39.5 °F 30.20 in WNW 9.0 mph 16.0 mph 46 % 0.00 in 643 W/m2
15:55 60.4 °F 39.5 °F 30.20 in WNW 9.0 mph 18.0 mph 46 % 0.00 in 615 W/m2
16:00 60.3 °F 38.8 °F 30.20 in West 9.0 mph 18.0 mph 45 % 0.00 in 638 W/m2
16:05 60.3 °F 39.4 °F 30.20 in WNW 9.0 mph 15.0 mph 46 % 0.00 in 612 W/m2
16:10 60.4 °F 39.5 °F 30.19 in WNW 8.0 mph 15.0 mph 46 % 0.00 in 527 W/m2
16:15 60.4 °F 39.0 °F 30.19 in WNW 8.0 mph 18.0 mph 45 % 0.00 in 548 W/m2
16:20 59.7 °F 38.9 °F 30.19 in West 10.0 mph 18.0 mph 46 % 0.00 in 548 W/m2
16:25 59.4 °F 38.6 °F 30.19 in WNW 10.0 mph 18.0 mph 46 % 0.00 in 557 W/m2
16:30 59.5 °F 39.3 °F 30.19 in WNW 10.0 mph 18.0 mph 47 % 0.00 in 545 W/m2
16:35 59.5 °F 39.3 °F 30.19 in WNW 10.0 mph 16.0 mph 47 % 0.00 in 536 W/m2
16:40 59.5 °F 38.7 °F 30.19 in WNW 10.0 mph 18.0 mph 46 % 0.00 in 519 W/m2
16:45 59.4 °F 39.1 °F 30.18 in WNW 10.0 mph 18.0 mph 47 % 0.00 in 492 W/m2
16:50 59.2 °F 38.9 °F 30.18 in WNW 9.0 mph 16.0 mph 47 % 0.00 in 455 W/m2
16:55 59.2 °F 38.9 °F 30.18 in WNW 10.0 mph 18.0 mph 47 % 0.00 in 462 W/m2
17:00 59.0 °F 39.9 °F 30.18 in WNW 10.0 mph 18.0 mph 49 % 0.00 in 427 W/m2
17:05 58.6 °F 38.5 °F 30.18 in West 10.0 mph 16.0 mph 47 % 0.00 in 399 W/m2
17:10 58.5 °F 38.8 °F 30.18 in West 9.0 mph 18.0 mph 48 % 0.00 in 343 W/m2
17:15 58.5 °F 38.8 °F 30.18 in West 8.0 mph 18.0 mph 48 % 0.00 in 425 W/m2
17:20 58.6 °F 38.5 °F 30.18 in WNW 9.0 mph 18.0 mph 47 % 0.00 in 429 W/m2
17:25 58.6 °F 38.5 °F 30.17 in WNW 11.0 mph 18.0 mph 47 % 0.00 in 406 W/m2
17:30 58.6 °F 37.3 °F 30.17 in West 10.0 mph 16.0 mph 45 % 0.00 in 392 W/m2
17:35 58.5 °F 36.6 °F 30.17 in West 9.0 mph 16.0 mph 44 % 0.00 in 378 W/m2
17:40 58.5 °F 36.0 °F 30.17 in WNW 9.0 mph 16.0 mph 43 % 0.00 in 362 W/m2
17:45 58.5 °F 35.4 °F 30.17 in WNW 10.0 mph 16.0 mph 42 % 0.00 in 346 W/m2
17:50 58.3 °F 34.7 °F 30.17 in West 9.0 mph 16.0 mph 41 % 0.00 in 334 W/m2
17:55 58.3 °F 34.0 °F 30.17 in West 9.0 mph 16.0 mph 40 % 0.00 in 318 W/m2
18:00 58.3 °F 34.7 °F 30.17 in WNW 9.0 mph 14.0 mph 41 % 0.00 in 306 W/m2
18:05 58.5 °F 34.8 °F 30.16 in WNW 9.0 mph 14.0 mph 41 % 0.00 in 287 W/m2
18:10 58.5 °F 34.8 °F 30.16 in West 8.0 mph 14.0 mph 41 % 0.00 in 272 W/m2
18:16 58.5 °F 36.0 °F 30.16 in West 8.0 mph 14.0 mph 43 % 0.00 in 258 W/m2
18:21 58.5 °F 36.0 °F 30.16 in WNW 8.0 mph 15.0 mph 43 % 0.00 in 243 W/m2
18:26 58.1 °F 36.3 °F 30.16 in WNW 9.0 mph 18.0 mph 44 % 0.00 in 229 W/m2
18:31 57.6 °F 35.8 °F 30.16 in WNW 11.0 mph 18.0 mph 44 % 0.00 in 218 W/m2
18:36 57.4 °F 34.5 °F 30.16 in WNW 10.0 mph 19.0 mph 42 % 0.00 in 200 W/m2
18:41 57.0 °F 34.7 °F 30.16 in WNW 10.0 mph 19.0 mph 43 % 0.00 in 190 W/m2
18:46 56.8 °F 35.1 °F 30.16 in WNW 10.0 mph 16.0 mph 44 % 0.00 in 174 W/m2
18:51 56.7 °F 35.5 °F 30.16 in WNW 9.0 mph 16.0 mph 45 % 0.00 in 165 W/m2
18:56 56.3 °F 35.8 °F 30.15 in WNW 9.0 mph 15.0 mph 46 % 0.00 in 146 W/m2
19:01 55.8 °F 34.2 °F 30.15 in West 10.0 mph 16.0 mph 44 % 0.00 in 125 W/m2
19:06 55.2 °F 34.8 °F 30.15 in West 10.0 mph 19.0 mph 46 % 0.00 in 114 W/m2
19:11 54.9 °F 34.5 °F 30.15 in West 10.0 mph 20.0 mph 46 % 0.00 in 111 W/m2
19:16 54.7 °F 34.3 °F 30.15 in WNW 11.0 mph 21.0 mph 46 % 0.00 in 86 W/m2
19:21 54.1 °F 34.3 °F 30.15 in West 11.0 mph 21.0 mph 47 % 0.00 in 83 W/m2
19:26 53.6 °F 34.4 °F 30.15 in West 10.0 mph 20.0 mph 48 % 0.00 in 65 W/m2
19:31 53.1 °F 34.4 °F 30.15 in WNW 10.0 mph 18.0 mph 49 % 0.00 in 47 W/m2
19:36 52.7 °F 34.1 °F 30.15 in WNW 11.0 mph 20.0 mph 49 % 0.00 in 46 W/m2
19:41 52.2 °F 33.6 °F 30.15 in West 11.0 mph 20.0 mph 49 % 0.00 in 25 W/m2
19:46 51.6 °F 34.1 °F 30.15 in West 12.0 mph 20.0 mph 51 % 0.00 in 21 W/m2
19:51 51.4 °F 34.9 °F 30.15 in West 9.0 mph 20.0 mph 53 % 0.00 in 21 W/m2
19:56 51.1 °F 35.0 °F 30.15 in West 7.0 mph 15.0 mph 54 % 0.00 in 18 W/m2
20:01 50.7 °F 34.7 °F 30.15 in WNW 9.0 mph 15.0 mph 54 % 0.00 in 16 W/m2
20:06 50.4 °F 34.8 °F 30.15 in WNW 9.0 mph 19.0 mph 55 % 0.00 in 12 W/m2
20:11 50.2 °F 35.5 °F 30.15 in WNW 8.0 mph 19.0 mph 57 % 0.00 in 11 W/m2
20:16 49.8 °F 35.2 °F 30.15 in WNW 7.0 mph 13.0 mph 57 % 0.00 in 7 W/m2
20:21 49.5 °F 35.7 °F 30.15 in West 6.0 mph 13.0 mph 59 % 0.00 in 5 W/m2
20:26 49.3 °F 36.0 °F 30.15 in West 6.0 mph 13.0 mph 60 % 0.00 in 0 W/m2
20:31 48.9 °F 36.1 °F 30.14 in West 6.0 mph 13.0 mph 61 % 0.00 in 0 W/m2
20:36 48.7 °F 36.3 °F 30.15 in WNW 6.0 mph 13.0 mph 62 % 0.00 in 0 W/m2
20:41 48.4 °F 36.8 °F 30.15 in WNW 6.0 mph 13.0 mph 64 % 0.00 in 0 W/m2
20:46 48.2 °F 37.0 °F 30.14 in WNW 6.0 mph 11.0 mph 65 % 0.00 in 0 W/m2
20:51 48.0 °F 37.2 °F 30.15 in WNW 6.0 mph 11.0 mph 66 % 0.00 in 0 W/m2
20:56 47.8 °F 37.0 °F 30.15 in WNW 6.0 mph 10.0 mph 66 % 0.00 in 0 W/m2
21:01 47.7 °F 37.2 °F 30.15 in WNW 5.0 mph 10.0 mph 67 % 0.00 in 0 W/m2
21:06 47.7 °F 37.6 °F 30.15 in WNW 3.0 mph 9.0 mph 68 % 0.00 in 0 W/m2
21:11 47.5 °F 37.4 °F 30.15 in WNW 3.0 mph 7.0 mph 68 % 0.00 in 0 W/m2
21:16 47.1 °F 37.1 °F 30.15 in WNW 3.0 mph 7.0 mph 68 % 0.00 in 0 W/m2
21:21 46.9 °F 37.3 °F 30.14 in WNW 2.0 mph 5.0 mph 69 % 0.00 in 0 W/m2
21:26 46.8 °F 37.5 °F 30.14 in WNW 2.0 mph 5.0 mph 70 % 0.00 in 0 W/m2
21:31 46.6 °F 37.3 °F 30.14 in WNW 2.0 mph 5.0 mph 70 % 0.00 in 0 W/m2
21:36 46.4 °F 37.5 °F 30.14 in WNW 3.0 mph 8.0 mph 71 % 0.00 in 0 W/m2
21:41 46.2 °F 37.7 °F 30.14 in WNW 3.0 mph 8.0 mph 72 % 0.00 in 0 W/m2
21:46 46.0 °F 37.9 °F 30.14 in WNW 4.0 mph 9.0 mph 73 % 0.00 in 0 W/m2
21:51 46.0 °F 37.9 °F 30.14 in WNW 4.0 mph 9.0 mph 73 % 0.00 in 0 W/m2
21:57 45.9 °F 38.0 °F 30.14 in WNW 5.0 mph 7.0 mph 74 % 0.00 in 0 W/m2
22:02 45.9 °F 38.0 °F 30.14 in WNW 4.0 mph 8.0 mph 74 % 0.00 in 0 W/m2
22:07 45.7 °F 38.2 °F 30.14 in WNW 5.0 mph 9.0 mph 75 % 0.00 in 0 W/m2
22:08 45.7 °F 38.2 °F 30.13 in WNW 5.0 mph 9.0 mph 75 % 0.00 in 0 W/m2
22:13 45.7 °F 38.5 °F 30.13 in WNW 4.0 mph 9.0 mph 76 % 0.00 in 0 W/m2
22:14 45.7 °F 38.5 °F 30.13 in WNW 4.0 mph 9.0 mph 76 % 0.00 in 0 W/m2
22:19 45.5 °F 38.4 °F 30.13 in WNW 3.0 mph 8.0 mph 76 % 0.00 in 0 W/m2
22:24 45.3 °F 38.2 °F 30.13 in WNW 3.0 mph 7.0 mph 76 % 0.00 in 0 W/m2
22:29 45.3 °F 38.5 °F 30.12 in West 3.0 mph 7.0 mph 77 % 0.00 in 0 W/m2
22:34 45.3 °F 38.5 °F 30.13 in West 3.0 mph 7.0 mph 77 % 0.00 in 0 W/m2
22:39 45.1 °F 38.7 °F 30.13 in West 4.0 mph 7.0 mph 78 % 0.00 in 0 W/m2
22:44 45.1 °F 39.0 °F 30.13 in West 3.0 mph 7.0 mph 79 % 0.00 in 0 W/m2
22:49 45.1 °F 39.0 °F 30.12 in West 3.0 mph 7.0 mph 79 % 0.00 in 0 W/m2
22:54 45.0 °F 38.8 °F 30.12 in West 3.0 mph 7.0 mph 79 % 0.00 in 0 W/m2
22:59 45.0 °F 39.2 °F 30.12 in West 3.0 mph 6.0 mph 80 % 0.00 in 0 W/m2
23:04 45.0 °F 39.5 °F 30.12 in West 2.0 mph 6.0 mph 81 % 0.00 in 0 W/m2
23:09 45.1 °F 39.7 °F 30.12 in West 2.0 mph 6.0 mph 81 % 0.00 in 0 W/m2
23:14 45.1 °F 39.7 °F 30.12 in WSW 2.0 mph 6.0 mph 81 % 0.00 in 0 W/m2
23:19 45.3 °F 39.8 °F 30.12 in Calm   5.0 mph 81 % 0.00 in 0 W/m2
23:24 45.3 °F 40.1 °F 30.11 in Calm     82 % 0.00 in 0 W/m2
23:29 45.3 °F 40.1 °F 30.11 in Calm     82 % 0.00 in 0 W/m2
23:34 45.5 °F 40.6 °F 30.11 in Calm     83 % 0.00 in 0 W/m2
23:39 45.7 °F 40.8 °F 30.11 in Calm     83 % 0.00 in 0 W/m2
23:44 45.9 °F 41.0 °F 30.10 in Calm   2.0 mph 83 % 0.00 in 0 W/m2
23:49 45.9 °F 41.0 °F 30.10 in Calm   2.0 mph 83 % 0.00 in 0 W/m2
23:54 46.2 °F 41.7 °F 30.10 in West 2.0 mph 9.0 mph 84 % 0.00 in 0 W/m2
23:59 46.8 °F 42.2 °F 30.10 in West 4.0 mph 9.0 mph 84 % 0.00 in 0 W/m2
Delerius-Weather
Compliments of Weather Underground - 2.25 mb

Data updates at regular intervals.